Regional Weather Roundup
Issued by NWS

Home | Current Version | Previous Version | Text Only | Print | Product List | Glossary On
Versions: 1 2 3 4 5 6 7 8 9 10 11 12 13 14 15 16 17 18 19 20 21 22 23 24 25 26 27 28 29 30 31 32 33 34 35 36 37 38 39 40 41 42 43 44 45 46 47 48 49 50
000
ASUS43 KFSD 291902
RWRSD

WEATHER ROUNDUP FOR SOUTH DAKOTA
NATIONAL WEATHER SERVICE SIOUX FALLS SD
200 PM CDT FRI JUL 29 2016

NOTE: "FAIR" INDICATES FEW OR NO CLOUDS BELOW 12,000 FEET WITH NO
SIGNIFICANT WEATHER AND/OR OBSTRUCTIONS TO VISIBILITY.


SDZ001>005-009-010-012>017-292000-
NORTHWEST AND NORTH CENTRAL SOUTH DAKOTA

CITY           SKY/WX    TMP DP  RH WIND       PRES   REMARKS
BUFFALO          N/A     79  56  45 S8        30.02F
FAITH            N/A     76  56  49 S9        30.07F
MOBRIDGE       CLOUDY    77  60  55 S3        30.04F
$$

SDZ012>016-024>037-041>051-057-063-072>074-292000-
SOUTHWEST AND SOUTH CENTRAL SOUTH DAKOTA

CITY           SKY/WX    TMP DP  RH WIND       PRES   REMARKS
RAPID CTY ARPT PTSUNNY   78  55  44 VRB7      30.08F
PIERRE         MOSUNNY   80  56  43 S12G18    30.05F
CUSTER         CLOUDY    66  56  70 E16G26    30.19S
ELLSWORTH AFB  CLOUDY    80  56  44 E7        30.08F
PHILIP         PTSUNNY   77  61  57 E8        30.06F
PINE RIDGE     CLOUDY    79  57  46 E7        30.09F
WINNER         FAIR      79  57  46 E9        30.09F
$$

SDZ004>011-016>023-039-040-292000-
NORTHEAST SOUTH DAKOTA

CITY           SKY/WX    TMP DP  RH WIND       PRES   REMARKS
ABERDEEN       NOT AVBL
WATERTOWN      CLOUDY    77  55  46 S7        30.09F
BROOKINGS      CLOUDY    75  53  46 NE7       30.10F
SISSETON         N/A     75  58  55 SW9       30.07F
$$

SDZ017-020-022-023-036>040-048>070-292000-
SOUTHEAST SOUTH DAKOTA

CITY           SKY/WX    TMP DP  RH WIND       PRES   REMARKS
SIOUX FALLS    MOSUNNY   77  56  48 NE6       30.08F
HURON          MOSUNNY   80  55  42 MISG      30.07F
CHAMBERLAIN    MOSUNNY   83  58  42 SE6       30.07F
MITCHELL       SUNNY     80  55  42 E8        30.08F
YANKTON        MOSUNNY   75  54  46 CALM      30.06F
$$

ABBREVIATIONS USED IN REMARKS
   TC - TEMPERATURE IN CELSIUS
  WCI - WIND CHILL INDEX
   HX - HEAT INDEX
  VSB - VISIBILITY





USA.gov is the U.S. government's official web portal to all federal, state and local government web resources and services.